GW3348 Weather Reports


time (UTC)temp
C
wind
direction
speed
KPH
gust
KPH
rain 1hr
cm
rain 24hr
cm
rain mn
cm
humidity
%
barometer
mb
20260505152414 13 89 1.6 6.4 0.00 0.00 0.00 83 1013.6
20260505151913 13 170 0.0 3.2 0.00 0.00 0.00 83 1013.9
20260505151410 13 124 0.0 8.0 0.00 0.00 0.00 83 1013.7
20260505150902 13 130 1.6 11.3 0.00 0.00 0.00 83 1013.7
20260505150359 13 153 0.0 6.4 0.00 0.00 0.00 84 1013.3
20260505140323 12 130 1.6 6.4 0.00 0.00 0.00 86 1013.2
20260505130246 12 131 4.8 4.8 0.00 0.00 0.00 87 1012.3
20260505124737 12 189 0.0 4.8 0.00 0.00 0.00 87 1012.6
20260505124234 12 140 3.2 6.4 0.00 0.00 0.00 87 1012.3
20260505123729 12 86 0.0 8.0 0.00 0.00 0.00 87 1012.1
20260505123226 12 122 4.8 6.4 0.00 0.00 0.00 87 1012.1
20260505122722 12 118 3.2 6.4 0.00 0.00 0.00 87 1012.0
20260505122219 12 146 4.8 6.4 0.00 0.00 0.00 87 1012.0
20260505121710 12 140 3.2 9.7 0.00 0.00 0.00 87 1012.0
20260505121207 12 169 3.2 6.4 0.00 0.00 0.00 87 1011.8
20260505120704 12 148 3.2 6.4 0.00 0.00 0.00 88 1011.8
20260505120159 12 85 1.6 4.8 0.00 0.00 0.00 89 1012.1
20260505115653 12 132 1.6 4.8 0.00 0.00 0.00 89 1012.0
20260505115151 12 133 1.6 6.4 0.00 0.00 0.00 89 1011.9
20260505114648 11 82 0.0 4.8 0.00 0.00 0.00 90 1011.8
20260505114144 11 95 1.6 4.8 0.00 0.00 0.00 90 1011.8
20260505113641 11 157 6.4 14.5 0.00 0.00 0.00 91 1011.9
20260505113137 10 111 1.6 6.4 0.00 0.00 0.00 92 1011.9
20260505112633 10 137 3.2 4.8 0.00 0.00 0.00 91 1011.9
20260505112131 10 79 1.6 4.8 0.00 0.00 0.00 91 1011.7
20260505111626 10 69 1.6 6.4 0.00 0.00 0.00 90 1011.7
20260505111122 10 88 3.2 4.8 0.00 0.00 0.00 90 1011.6
20260505110618 10 73 4.8 6.4 0.00 0.00 0.00 90 1011.6
20260505110115 10 71 3.2 8.0 0.00 0.00 0.00 90 1011.5
20260505102051 10 83 4.8 8.0 0.00 0.00 0.00 88 1011.2
20260505101549 10 83 4.8 6.4 0.00 0.00 0.00 88 1011.4
20260505101045 11 94 3.2 8.0 0.00 0.00 0.00 88 1011.4
20260505100542 11 82 3.2 4.8 0.00 0.00 0.00 88 1011.1
20260505100039 11 96 4.8 4.8 0.00 0.00 0.00 88 1011.1
20260505095535 11 77 4.8 6.4 0.00 0.00 0.00 88 1010.8
20260505095032 11 84 6.4 6.4 0.00 0.00 0.00 88 1011.1
20260505094528 11 88 4.8 6.4 0.00 0.00 0.00 87 1010.7
20260505094025 11 92 6.4 6.4 0.00 0.00 0.00 87 1010.8
20260505093521 11 104 3.2 4.8 0.00 0.00 0.00 87 1010.8
20260505093019 11 89 4.8 6.4 0.00 0.00 0.00 87 1010.8
20260505092516 11 98 4.8 8.0 0.00 0.00 0.00 86 1010.6
20260505092014 11 93 3.2 6.4 0.00 0.00 0.00 86 1010.6
20260505091511 11 87 4.8 6.4 0.00 0.00 0.00 86 1010.5
20260505091009 11 79 4.8 6.4 0.00 0.00 0.00 85 1010.7
20260505090507 11 84 3.2 4.8 0.00 0.00 0.00 85 1010.6
20260505090004 11 83 4.8 6.4 0.00 0.00 0.00 84 1010.5
20260505085502 11 84 3.2 4.8 0.00 0.00 0.00 84 1010.5
20260505085000 11 79 3.2 4.8 0.00 0.00 0.00 84 1010.4
20260505084458 11 74 3.2 4.8 0.00 0.00 0.00 83 1010.3
20260505083955 11 84 3.2 4.8 0.00 0.00 0.00 83 1010.5
20260505083452 11 79 3.2 4.8 0.00 0.00 0.00 84 1010.2
20260505082949 11 85 3.2 4.8 0.00 0.00 0.00 83 1010.1
20260505082444 11 93 1.6 4.8 0.00 0.00 0.00 82 1010.4
20260505081942 11 83 3.2 4.8 0.00 0.00 0.00 82 1010.3
20260505081438 11 84 1.6 3.2 0.00 0.00 0.00 82 1010.3
20260505080935 11 93 1.6 3.2 0.00 0.00 0.00 82 1010.2
20260505080431 12 58 3.2 3.2 0.00 0.00 0.00 81 1010.2
20260505075926 12 82 3.2 4.8 0.00 0.00 0.00 81 1010.0
20260505075424 12 107 0.0 3.2 0.00 0.00 0.00 81 1010.2
20260505074921 12 88 0.0 3.2 0.00 0.00 0.00 80 1010.0
20260505074418 12 115 1.6 3.2 0.00 0.00 0.00 81 1010.1
20260505073915 12 88 0.0 3.2 0.00 0.00 0.00 80 1009.9
20260505073413 12 66 0.0 4.8 0.00 0.00 0.00 80 1009.8
20260505072910 12 30 1.6 3.2 0.00 0.00 0.00 79 1010.0
20260505072406 12 17 3.2 4.8 0.00 0.00 0.00 80 1009.6
20260505071903 12 45 0.0 3.2 0.00 0.00 0.00 80 1009.6
20260505071359 12 127 0.0 3.2 0.00 0.00 0.00 80 1009.6
20260505070857 12 54 0.0 3.2 0.00 0.00 0.00 79 1009.6
20260505070353 12 81 0.0 3.2 0.00 0.00 0.00 78 1009.4
20260505065848 12 39 0.0 3.2 0.00 0.00 0.00 77 1009.6
20260505065346 12 42 0.0 3.2 0.00 0.00 0.00 76 1009.5
20260505064842 13 52 1.6 3.2 0.00 0.00 0.00 75 1009.6
20260505064339 13 12 0.0 3.2 0.00 0.00 0.00 75 1009.5
20260505063838 13 75 0.0 3.2 0.00 0.00 0.00 75 1009.4
20260505063333 13 60 1.6 3.2 0.00 0.00 0.00 75 1009.5
20260505062830 13 29 0.0 3.2 0.00 0.00 0.00 75 1009.2
20260505062328 13 50 0.0 3.2 0.00 0.00 0.00 75 1009.1
20260505061824 13 89 0.0 3.2 0.00 0.00 0.00 74 1009.2
20260505061322 13 46 1.6 3.2 0.00 0.00 0.00 73 1009.0
20260505060820 13 37 0.0 3.2 0.00 0.00 0.00 73 1009.0
20260505060316 13 345 0.0 3.2 0.00 0.00 0.00 72 1008.7
20260505055812 14 339 0.0 3.2 0.00 0.00 0.00 72 1009.0
20260505055308 14 42 3.2 4.8 0.00 0.00 0.00 71 1008.8
20260505054806 14 17 3.2 4.8 0.00 0.00 0.00 71 1009.0
20260505054303 14 38 0.0 3.2 0.00 0.00 0.00 72 1008.8
20260505053801 15 150 0.0 3.2 0.00 0.00 0.00 71 1008.7
20260505053258 15 336 0.0 3.2 0.00 0.00 0.00 71 1008.8
20260505052755 15 354 1.6 4.8 0.00 0.00 0.00 70 1008.7
20260505052252 15 50 0.0 3.2 0.00 0.00 0.00 71 1008.5
20260505051749 15 34 3.2 4.8 0.00 0.00 0.00 69 1008.4
20260505051247 15 20 0.0 3.2 0.00 0.00 0.00 68 1008.5
20260505050744 15 83 3.2 3.2 0.00 0.00 0.00 68 1008.4
20260505050243 16 30 3.2 4.8 0.00 0.00 0.00 69 1008.3
20260505041712 16 65 1.6 3.2 0.00 0.00 0.00 68 1008.2
20260505041209 16 331 0.0 3.2 0.00 0.00 0.00 69 1007.9
20260505040707 17 33 1.6 3.2 0.00 0.00 0.00 69 1008.0
20260505040204 17 89 0.0 3.2 0.00 0.00 0.00 68 1008.1
20260505035701 17 35 0.0 4.8 0.00 0.00 0.00 66 1007.9
20260505035156 17 12 0.0 6.4 0.00 0.00 0.00 65 1007.9
20260505034653 18 356 1.6 4.8 0.00 0.00 0.00 64 1007.7
20260505034150 18 32 1.6 4.8 0.00 0.00 0.00 63 1007.8
20260505033646 18 314 0.0 3.2 0.00 0.00 0.00 62 1007.7
20260505033145 18 328 3.2 4.8 0.00 0.00 0.00 62 1007.7
20260505032643 18 299 0.0 3.2 0.00 0.00 0.00 62 1007.6
20260505032138 19 54 0.0 3.2 0.00 0.00 0.00 60 1007.7
20260505031636 20 358 3.2 6.4 0.00 0.00 0.00 58 1007.5
20260505031132 20 41 3.2 6.4 0.00 0.00 0.00 58 1007.5
20260505030629 20 312 3.2 6.4 0.00 0.00 0.00 58 1007.5
20260505030125 20 350 1.6 4.8 0.00 0.00 0.00 57 1007.3
20260505025621 20 297 0.0 4.8 0.00 0.00 0.00 56 1007.5
20260505025120 21 359 4.8 8.0 0.00 0.00 0.00 55 1007.4
20260505024617 21 298 4.8 8.0 0.00 0.00 0.00 54 1007.4
20260505024114 20 328 4.8 9.7 0.00 0.00 0.00 55 1007.3
20260505023611 21 299 4.8 9.7 0.00 0.00 0.00 54 1007.2
20260505023109 21 0 3.2 9.7 0.00 0.00 0.00 52 1007.1
20260505022606 21 1 3.2 6.4 0.00 0.00 0.00 51 1007.2
20260505022103 22 337 3.2 16.1 0.00 0.00 0.00 49 1006.9
20260505021600 22 288 4.8 12.9 0.00 0.00 0.00 49 1006.9
20260505021056 23 316 6.4 9.7 0.00 0.00 0.00 48 1007.0
20260505020556 23 304 4.8 8.0 0.00 0.00 0.00 46 1007.2
20260505020053 23 243 0.0 6.4 0.00 0.00 0.00 49 1007.0
20260505015550 23 315 0.0 3.2 0.00 0.00 0.00 47 1006.9
20260505015047 23 273 0.0 4.8 0.00 0.00 0.00 48 1006.9
20260505014544 24 161 0.0 9.7 0.00 0.00 0.00 47 1006.9
20260505014041 25 220 3.2 6.4 0.00 0.00 0.00 44 1006.9
20260505013538 25 223 3.2 4.8 0.00 0.00 0.00 38 1006.7
20260505013036 25 291 0.0 4.8 0.00 0.00 0.00 39 1007.0
20260505012534 25 299 3.2 4.8 0.00 0.00 0.00 37 1006.9
20260505012031 25 315 3.2 8.0 0.00 0.00 0.00 38 1006.8
20260505011526 26 266 0.0 3.2 0.00 0.00 0.00 38 1006.6
20260505011023 25 154 3.2 3.2 0.00 0.00 0.00 36 1006.9
20260505010518 25 172 3.2 6.4 0.00 0.00 0.00 37 1007.1
20260505010015 26 203 3.2 9.7 0.00 0.00 0.00 38 1006.9
20260505005512 26 222 1.6 9.7 0.00 0.00 0.00 39 1007.1
20260505005010 26 272 0.0 4.8 0.00 0.00 0.00 40 1006.8
20260505004506 26 290 0.0 3.2 0.00 0.00 0.00 42 1007.0
20260505004003 25 265 0.0 8.0 0.00 0.00 0.00 43 1007.0
20260505003500 26 258 1.6 9.7 0.00 0.00 0.00 41 1007.2
20260505002956 26 197 3.2 8.0 0.00 0.00 0.00 40 1007.0
20260505002452 26 216 1.6 8.0 0.00 0.00 0.00 42 1007.1
20260505001951 26 274 0.0 8.0 0.00 0.00 0.00 40 1007.1
20260505001448 27 274 3.2 4.8 0.00 0.00 0.00 40 1007.1
20260505000945 26 322 3.2 9.7 0.00 0.00 0.00 41 1007.1
20260505000443 26 182 3.2 6.4 0.00 0.00 0.00 40 1007.1
20260504235940 26 181 3.2 11.3 0.00 0.00 0.00 39 1006.9
20260504235437 26 268 0.0 6.4 0.00 0.00 0.00 40 1007.1
20260504234933 26 206 0.0 9.7 0.00 0.00 0.00 41 1007.0
20260504234431 27 185 3.2 9.7 0.00 0.00 0.00 39 1007.2
20260504233927 27 31 0.0 4.8 0.00 0.00 0.00 38 1007.2
20260504233423 27 215 0.0 9.7 0.00 0.00 0.00 39 1007.2
20260504232920 26 202 1.6 6.4 0.00 0.00 0.00 39 1007.3
20260504232417 26 261 3.2 9.7 0.00 0.00 0.00 38 1007.2
20260504231914 27 281 0.0 3.2 0.00 0.00 0.00 39 1007.3
20260504231410 27 195 3.2 8.0 0.00 0.00 0.00 37 1007.2
20260504230907 27 203 1.6 9.7 0.00 0.00 0.00 36 1007.5
20260504230404 27 272 1.6 4.8 0.00 0.00 0.00 37 1007.6
20260504225903 27 296 3.2 6.4 0.00 0.00 0.00 38 1007.6
20260504225359 27 297 4.8 8.0 0.00 0.00 0.00 38 1007.4
20260504224857 26 268 4.8 11.3 0.00 0.00 0.00 38 1007.5
20260504224353 26 288 4.8 9.7 0.00 0.00 0.00 40 1007.5
20260504223850 27 221 1.6 6.4 0.00 0.00 0.00 38 1007.5
20260504223345 26 275 4.8 14.5 0.00 0.00 0.00 39 1007.6
20260504222842 27 237 0.0 11.3 0.00 0.00 0.00 39 1007.7
20260504222339 26 317 1.6 6.4 0.00 0.00 0.00 40 1007.5
20260504221837 27 288 4.8 11.3 0.00 0.00 0.00 39 1007.7
20260504221333 26 205 1.6 8.0 0.00 0.00 0.00 38 1007.6
20260504220831 27 147 4.8 8.0 0.00 0.00 0.00 38 1007.6
20260504220327 27 198 4.8 6.4 0.00 0.00 0.00 37 1007.9
20260504215825 26 214 1.6 11.3 0.00 0.00 0.00 38 1007.9
20260504215321 26 217 4.8 9.7 0.00 0.00 0.00 38 1007.8
20260504214817 26 202 1.6 4.8 0.00 0.00 0.00 38 1008.0
20260504214314 26 162 4.8 11.3 0.00 0.00 0.00 40 1008.1
20260504213811 26 288 0.0 9.7 0.00 0.00 0.00 42 1007.9
20260504213307 26 238 4.8 8.0 0.00 0.00 0.00 39 1008.2
20260504212804 26 179 4.8 12.9 0.00 0.00 0.00 41 1008.2
20260504212300 26 160 3.2 11.3 0.00 0.00 0.00 41 1008.0
20260504211758 26 232 0.0 11.3 0.00 0.00 0.00 41 1008.1
20260504211254 26 273 1.6 9.7 0.00 0.00 0.00 43 1008.2
20260504210751 26 281 6.4 11.3 0.00 0.00 0.00 41 1008.3
20260504210248 25 277 0.0 6.4 0.00 0.00 0.00 43 1008.4
20260504205745 25 244 1.6 6.4 0.00 0.00 0.00 44 1008.1
20260504205243 25 334 0.0 8.0 0.00 0.00 0.00 41 1008.3
20260504204741 26 275 1.6 8.0 0.00 0.00 0.00 43 1008.2
20260504204239 25 323 3.2 8.0 0.00 0.00 0.00 44 1008.3
20260504203738 25 226 1.6 19.3 0.00 0.00 0.00 45 1008.4
20260504203235 25 251 1.6 6.4 0.00 0.00 0.00 45 1008.3
20260504202735 25 210 1.6 8.0 0.00 0.00 0.00 45 1008.4
20260504202233 24 100 3.2 4.8 0.00 0.00 0.00 46 1008.5
20260504201730 23 298 1.6 4.8 0.00 0.00 0.00 46 1008.4
20260504201227 24 289 3.2 6.4 0.00 0.00 0.00 46 1008.4
20260504200725 23 305 6.4 11.3 0.00 0.00 0.00 45 1008.4
20260504200220 23 287 1.6 6.4 0.00 0.00 0.00 45 1008.6
20260504195717 24 159 0.0 4.8 0.00 0.00 0.00 47 1008.6
20260504195213 23 264 1.6 4.8 0.00 0.00 0.00 46 1008.5
20260504194710 23 207 3.2 8.0 0.00 0.00 0.00 45 1008.5
20260504194206 23 221 0.0 6.4 0.00 0.00 0.00 49 1008.6
20260504193703 22 181 4.8 9.7 0.00 0.00 0.00 47 1008.8
20260504193200 23 241 3.2 8.0 0.00 0.00 0.00 47 1008.5
20260504192659 23 157 6.4 9.7 0.00 0.00 0.00 47 1008.5
20260504192156 23 124 0.0 6.4 0.00 0.00 0.00 46 1008.6
20260504191655 23 243 0.0 6.4 0.00 0.00 0.00 47 1008.5
20260504191150 23 7 3.2 4.8 0.00 0.00 0.00 47 1008.5
20260504190646 23 138 3.2 6.4 0.00 0.00 0.00 48 1008.9
20260504190138 22 264 3.2 8.0 0.00 0.00 0.00 48 1008.7
20260504185634 23 259 3.2 6.4 0.00 0.00 0.00 46 1008.8
20260504185131 22 247 0.0 4.8 0.00 0.00 0.00 44 1008.9
20260504184626 22 175 0.0 8.0 0.00 0.00 0.00 44 1008.8
20260504184121 23 249 3.2 11.3 0.00 0.00 0.00 45 1008.7
20260504183619 22 321 3.2 4.8 0.00 0.00 0.00 47 1008.7
20260504183117 23 269 0.0 3.2 0.00 0.00 0.00 49 1008.8
20260504182614 22 306 1.6 4.8 0.00 0.00 0.00 44 1008.8
20260504182111 22 158 1.6 8.0 0.00 0.00 0.00 45 1008.9
20260504181609 22 188 1.6 6.4 0.00 0.00 0.00 47 1008.9
20260504181106 22 176 3.2 6.4 0.00 0.00 0.00 45 1008.7
20260504180605 22 268 1.6 3.2 0.00 0.00 0.00 46 1008.8
20260504180104 22 186 3.2 9.7 0.00 0.00 0.00 47 1008.8
20260504175600 21 293 0.0 3.2 0.00 0.00 0.00 49 1008.6
20260504175057 21 156 3.2 9.7 0.00 0.00 0.00 48 1008.5
20260504174555 21 159 3.2 9.7 0.00 0.00 0.00 49 1008.7
20260504174051 21 220 0.0 11.3 0.00 0.00 0.00 53 1008.5
20260504173548 21 86 1.6 6.4 0.00 0.00 0.00 54 1008.7
20260504173046 21 218 4.8 8.0 0.00 0.00 0.00 53 1008.6
20260504172542 20 237 0.0 6.4 0.00 0.00 0.00 59 1008.7
20260504172038 20 274 3.2 4.8 0.00 0.00 0.00 61 1008.6
20260504171535 20 232 0.0 6.4 0.00 0.00 0.00 61 1008.7
20260504171032 20 220 3.2 6.4 0.00 0.00 0.00 62 1008.5
20260504170528 20 256 0.0 8.0 0.00 0.00 0.00 63 1008.7